Regional Weather Roundup
Issued by NWS

Home | Current Version | Previous Version | Graphics & Text | Print | Product List | Glossary On
Versions: 1 2 3 4 5 6 7 8 9 10 11 12 13 14 15 16 17 18 19 20 21 22 23 24 25 26 27 28 29 30 31 32 33 34 35 36 37 38 39 40 41 42 43 44 45 46 47 48 49 50
000
ASUS43 KFSD 281302
RWRSD

WEATHER ROUNDUP FOR SOUTH DAKOTA
NATIONAL WEATHER SERVICE SIOUX FALLS SD
700 AM CST WED JAN 28 2015

NOTE: "FAIR" INDICATES FEW OR NO CLOUDS BELOW 12,000 FEET WITH NO
SIGNIFICANT WEATHER AND/OR OBSTRUCTIONS TO VISIBILITY.


SDZ001>005-009-010-012>017-281400-
NORTHWEST AND NORTH CENTRAL SOUTH DAKOTA

CITY           SKY/WX    TMP DP  RH WIND       PRES   REMARKS
BUFFALO          N/A     43  31  62 W12       29.74R
FAITH            N/A     40  30  67 NW9       29.74R
MOBRIDGE       CLOUDY    31  28  89 N9        29.68F WCI  23
$$

SDZ012>016-024>037-041>051-057-063-072>074-281400-
SOUTHWEST AND SOUTH CENTRAL SOUTH DAKOTA

CITY           SKY/WX    TMP DP  RH WIND       PRES   REMARKS
RAPID CTY ARPT PTCLDY    42  28  57 NW12      29.79R
PIERRE         CLOUDY    27  27 100 W9        29.72R WCI  18
CUSTER         MOCLDY    39  26  59 W10       29.87F
ELLSWORTH AFB  PTCLDY    44  28  54 NW9       29.80R
PHILIP         PTCLDY    35  28  75 W9        29.76R WCI  28
PINE RIDGE     PTCLDY    46  30  53 W12       29.85R
WINNER         FAIR      51  31  46 SW10      29.71F
$$

SDZ004>011-016>023-039-040-281400-
NORTHEAST SOUTH DAKOTA

CITY           SKY/WX    TMP DP  RH WIND       PRES   REMARKS
ABERDEEN       MOCLDY    32  29  88 SE8       29.74F WCI  25
WATERTOWN      PTCLDY    33  30  88 S10       29.75S WCI  25
SISSETON         N/A     32  32 100 S15       29.79F WCI  22
$$

SDZ017-020-022-023-036>040-048>070-281400-
SOUTHEAST SOUTH DAKOTA

CITY           SKY/WX    TMP DP  RH WIND       PRES   REMARKS
SIOUX FALLS    MOCLDY    33  29  85 SE14      29.80F WCI  23
HURON          MOCLDY    33  30  88 S10       29.72S WCI  25
MITCHELL         N/A     34  31  88 MISG      29.73F
YANKTON        CLEAR     32  28  86 SE12      29.82F WCI  23
$$

ABBREVIATIONS USED IN REMARKS
   TC - TEMPERATURE IN CELSIUS
  WCI - WIND CHILL INDEX
   HX - HEAT INDEX
  VSB - VISIBILITY



USA.gov is the U.S. government's official web portal to all federal, state and local government web resources and services.